Time,TemperatureF,DewpointF,PressureIn,WindDirection,WindDirectionDegrees,WindSpeedMPH,WindSpeedGustMPH,Humidity,HourlyPrecipIn,Conditions,Clouds,dailyrainin,SoftwareType,DateUTC
2013-05-23 00:02:00,54.0,47.0,30.08,SE,126,4.0,11.0,75,0.00,,,-99.99,,2013-05-23 06:02:00,
2013-05-23 00:12:00,54.0,47.0,30.10,East,99,5.0,8.0,76,0.00,,,-99.99,,2013-05-23 06:12:00,
2013-05-23 00:21:00,53.0,47.0,30.10,ENE,57,2.0,8.0,78,0.00,,,-99.99,,2013-05-23 06:21:00,
2013-05-23 00:31:00,54.0,47.0,30.10,East,97,4.0,8.0,77,0.00,,,-99.99,,2013-05-23 06:31:00,
2013-05-23 00:41:00,54.0,47.0,30.10,East,98,7.0,10.0,76,0.00,,,-99.99,,2013-05-23 06:41:00,
2013-05-23 00:52:00,54.0,47.0,30.11,East,86,3.0,8.0,77,0.00,,,-99.99,,2013-05-23 06:52:00,
2013-05-23 01:02:00,53.0,46.0,30.11,SE,136,1.0,4.0,77,0.00,,,-99.99,,2013-05-23 07:02:00,
2013-05-23 01:11:00,53.0,46.0,30.11,East,92,3.0,5.0,78,0.00,,,-99.99,,2013-05-23 07:11:00,
2013-05-23 01:21:00,53.0,46.0,30.12,ESE,104,9.0,13.0,76,0.00,,,-99.99,,2013-05-23 07:21:00,
2013-05-23 01:31:00,53.0,45.0,30.11,East,94,9.0,11.0,73,0.00,,,-99.99,,2013-05-23 07:31:00,
2013-05-23 01:42:00,53.0,45.0,30.11,East,91,8.0,13.0,74,0.00,,,-99.99,,2013-05-23 07:42:00,
2013-05-23 01:59:00,53.0,45.0,30.11,East,84,9.0,11.0,74,0.00,,,-99.99,,2013-05-23 07:59:00,
2013-05-23 02:11:00,52.0,45.0,30.11,ENE,77,8.0,13.0,76,0.00,,,-99.99,,2013-05-23 08:11:00,
2013-05-23 02:21:00,52.0,45.0,30.11,ENE,63,12.0,14.0,77,0.00,,,-99.99,,2013-05-23 08:21:00,
2013-05-23 02:31:00,52.0,45.0,30.10,East,81,8.0,13.0,77,0.00,,,-99.99,,2013-05-23 08:31:00,
2013-05-23 02:41:00,51.0,45.0,30.10,ENE,73,9.0,14.0,78,0.00,,,-99.99,,2013-05-23 08:41:00,
2013-05-23 02:51:00,51.0,45.0,30.11,ENE,69,7.0,10.0,78,0.00,,,-99.99,,2013-05-23 08:51:00,
2013-05-23 03:01:00,51.0,45.0,30.11,NE,39,5.0,12.0,78,0.00,,,-99.99,,2013-05-23 09:01:00,
2013-05-23 03:11:00,51.0,44.0,30.11,North,351,7.0,7.0,79,0.00,,,-99.99,,2013-05-23 09:11:00,
2013-05-23 03:21:00,50.0,44.0,30.12,North,7,4.0,10.0,79,0.00,,,-99.99,,2013-05-23 09:21:00,
2013-05-23 03:33:00,50.0,45.0,30.11,NNW,348,4.0,6.0,82,0.00,,,-99.99,,2013-05-23 09:33:00,
2013-05-23 03:42:00,49.0,45.0,30.12,North,357,5.0,7.0,84,0.00,,,-99.99,,2013-05-23 09:42:00,
2013-05-23 03:53:00,49.0,45.0,30.12,North,7,7.0,8.0,85,0.00,,,-99.99,,2013-05-23 09:53:00,
2013-05-23 04:02:00,48.0,44.0,30.12,NE,40,7.0,9.0,86,0.00,,,-99.99,,2013-05-23 10:02:00,
2013-05-23 04:12:00,48.0,44.0,30.12,ENE,57,3.0,10.0,86,0.00,,,-99.99,,2013-05-23 10:12:00,
2013-05-23 04:22:00,48.0,44.0,30.12,ENE,65,7.0,9.0,86,0.00,,,-99.99,,2013-05-23 10:22:00,
2013-05-23 04:32:00,48.0,44.0,30.12,NE,42,4.0,7.0,86,0.00,,,-99.99,,2013-05-23 10:32:00,
2013-05-23 04:42:00,48.0,44.0,30.12,ENE,65,5.0,7.0,86,0.00,,,-99.99,,2013-05-23 10:42:00,
2013-05-23 04:52:00,48.0,44.0,30.12,ENE,72,3.0,6.0,86,0.00,,,-99.99,,2013-05-23 10:52:00,
2013-05-23 05:02:00,48.0,44.0,30.12,NE,54,5.0,7.0,86,0.00,,,-99.99,,2013-05-23 11:02:00,
2013-05-23 05:11:00,48.0,44.0,30.12,ENE,74,3.0,6.0,87,0.00,,,-99.99,,2013-05-23 11:11:00,
2013-05-23 05:21:00,47.0,44.0,30.12,ENE,73,3.0,6.0,87,0.00,,,-99.99,,2013-05-23 11:21:00,
2013-05-23 05:32:00,47.0,43.0,30.12,NNE,30,1.0,4.0,88,0.00,,,-99.99,,2013-05-23 11:32:00,
2013-05-23 05:41:00,47.0,44.0,30.12,NW,306,3.0,3.0,89,0.00,,,-99.99,,2013-05-23 11:41:00,
2013-05-23 05:52:00,46.0,43.0,30.12,NNW,330,3.0,3.0,90,0.00,,,-99.99,,2013-05-23 11:52:00,
2013-05-23 06:01:00,47.0,44.0,30.12,NNW,332,1.0,3.0,90,0.00,,,-99.99,,2013-05-23 12:01:00,
2013-05-23 06:11:00,46.0,44.0,30.12,NNW,343,1.0,4.0,90,0.00,,,-99.99,,2013-05-23 12:11:00,
2013-05-23 06:21:00,47.0,44.0,30.12,NNW,328,2.0,4.0,90,0.00,,,-99.99,,2013-05-23 12:21:00,
2013-05-23 06:32:00,47.0,44.0,30.12,WNW,290,5.0,6.0,90,0.00,,,-99.99,,2013-05-23 12:32:00,
2013-05-23 06:42:00,48.0,44.0,30.12,NNW,329,5.0,7.0,90,0.00,,,-99.99,,2013-05-23 12:42:00,
2013-05-23 06:52:00,48.0,45.0,30.12,NW,317,7.0,8.0,88,0.00,,,-99.99,,2013-05-23 12:52:00,
2013-05-23 07:01:00,49.0,45.0,30.12,NW,308,6.0,7.0,87,0.00,,,-99.99,,2013-05-23 13:01:00,
2013-05-23 07:11:00,49.0,45.0,30.12,NW,309,4.0,9.0,86,0.00,,,-99.99,,2013-05-23 13:11:00,
2013-05-23 07:22:00,50.0,45.0,30.12,NW,310,5.0,7.0,85,0.00,,,-99.99,,2013-05-23 13:22:00,
2013-05-23 07:31:00,50.0,45.0,30.11,NNW,327,5.0,7.0,84,0.00,,,-99.99,,2013-05-23 13:31:00,
2013-05-23 07:41:00,51.0,45.0,30.12,WNW,303,5.0,7.0,83,0.00,,,-99.99,,2013-05-23 13:41:00,
2013-05-23 07:52:00,51.0,45.0,30.12,NNW,338,4.0,7.0,81,0.00,,,-99.99,,2013-05-23 13:52:00,
2013-05-23 08:01:00,53.0,46.0,30.12,North,11,4.0,6.0,79,0.00,,,-99.99,,2013-05-23 14:01:00,
2013-05-23 08:11:00,53.0,46.0,30.12,NW,316,2.0,6.0,77,0.00,,,-99.99,,2013-05-23 14:11:00,
2013-05-23 08:21:00,54.0,46.0,30.12,NNW,333,3.0,5.0,75,0.00,,,-99.99,,2013-05-23 14:21:00,
2013-05-23 08:32:00,55.0,46.0,30.12,ENE,71,1.0,6.0,74,0.00,,,-99.99,,2013-05-23 14:32:00,
2013-05-23 08:42:00,55.0,46.0,30.11,WNW,286,2.0,6.0,70,0.00,,,-99.99,,2013-05-23 14:42:00,
2013-05-23 08:52:00,56.0,46.0,30.11,NW,320,5.0,6.0,69,0.00,,,-99.99,,2013-05-23 14:52:00,
2013-05-23 09:01:00,57.0,46.0,30.11,ENE,78,1.0,5.0,70,0.00,,,-99.99,,2013-05-23 15:01:00,
2013-05-23 09:11:00,59.0,47.0,30.11,NE,51,1.0,6.0,64,0.00,,,-99.99,,2013-05-23 15:11:00,
2013-05-23 09:21:00,57.0,46.0,30.11,West,270,3.0,7.0,67,0.00,,,-99.99,,2013-05-23 15:21:00,
2013-05-23 09:32:00,58.0,46.0,30.10,WNW,298,2.0,5.0,66,0.00,,,-99.99,,2013-05-23 15:32:00,
2013-05-23 09:42:00,59.0,46.0,30.10,NNW,330,3.0,5.0,64,0.00,,,-99.99,,2013-05-23 15:42:00,
2013-05-23 09:53:00,59.0,47.0,30.10,WNW,289,2.0,7.0,64,0.00,,,-99.99,,2013-05-23 15:53:00,
2013-05-23 10:03:00,59.0,47.0,30.10,NW,316,3.0,7.0,63,0.00,,,-99.99,,2013-05-23 16:03:00,
2013-05-23 10:12:00,61.0,46.0,30.08,SE,133,3.0,5.0,57,0.00,,,-99.99,,2013-05-23 16:12:00,
2013-05-23 10:23:00,60.0,46.0,30.10,SSW,192,5.0,7.0,59,0.00,,,-99.99,,2013-05-23 16:23:00,
2013-05-23 10:33:00,59.0,47.0,30.08,NNW,336,3.0,10.0,62,0.00,,,-99.99,,2013-05-23 16:33:00,
2013-05-23 10:42:00,60.0,47.0,30.08,NNW,344,4.0,14.0,62,0.00,,,-99.99,,2013-05-23 16:42:00,
2013-05-23 10:52:00,62.0,47.0,30.08,West,260,3.0,10.0,61,0.00,,,-99.99,,2013-05-23 16:52:00,
2013-05-23 11:03:00,64.0,47.0,30.07,South,181,8.0,13.0,55,0.00,,,-99.99,,2013-05-23 17:03:00,
2013-05-23 11:11:00,64.0,46.0,30.07,South,171,10.0,17.0,52,0.00,,,-99.99,,2013-05-23 17:11:00,
2013-05-23 11:22:00,64.0,45.0,30.07,SE,137,10.0,17.0,50,0.00,,,-99.99,,2013-05-23 17:22:00,
2013-05-23 11:33:00,65.0,46.0,30.06,ESE,111,4.0,15.0,50,0.00,,,-99.99,,2013-05-23 17:33:00,
2013-05-23 11:42:00,65.0,45.0,30.06,SSE,159,12.0,19.0,49,0.00,,,-99.99,,2013-05-23 17:42:00,
2013-05-23 11:52:00,65.0,44.0,30.06,South,191,5.0,15.0,46,0.00,,,-99.99,,2013-05-23 17:52:00,
2013-05-23 12:01:00,66.0,46.0,30.06,South,174,12.0,16.0,48,0.00,,,-99.99,,2013-05-23 18:01:00,
2013-05-23 12:11:00,65.0,44.0,30.05,South,180,10.0,13.0,46,0.00,,,-99.99,,2013-05-23 18:11:00,
2013-05-23 12:21:00,66.0,44.0,30.05,SE,132,11.0,20.0,45,0.00,,,-99.99,,2013-05-23 18:21:00,
2013-05-23 12:32:00,67.0,45.0,30.05,SSE,162,9.0,20.0,46,0.00,,,-99.99,,2013-05-23 18:32:00,
2013-05-23 12:42:00,66.0,44.0,30.05,ENE,67,7.0,15.0,46,0.00,,,-99.99,,2013-05-23 18:42:00,
2013-05-23 12:52:00,66.0,45.0,30.04,ESE,105,6.0,19.0,47,0.00,,,-99.99,,2013-05-23 18:52:00,
2013-05-23 13:01:00,66.0,45.0,30.04,ENE,75,12.0,17.0,47,0.00,,,-99.99,,2013-05-23 19:01:00,
2013-05-23 13:11:00,67.0,45.0,30.04,ESE,115,6.0,17.0,46,0.00,,,-99.99,,2013-05-23 19:11:00,
2013-05-23 13:21:00,67.0,45.0,30.04,SE,130,5.0,15.0,46,0.00,,,-99.99,,2013-05-23 19:21:00,
2013-05-23 13:32:00,66.0,44.0,30.04,East,99,8.0,11.0,44,0.00,,,-99.99,,2013-05-23 19:32:00,
2013-05-23 13:41:00,67.0,44.0,30.03,East,90,9.0,11.0,44,0.00,,,-99.99,,2013-05-23 19:41:00,
2013-05-23 13:52:00,67.0,45.0,30.03,SSE,160,7.0,12.0,45,0.00,,,-99.99,,2013-05-23 19:52:00,
2013-05-23 14:02:00,67.0,45.0,30.03,East,91,7.0,15.0,46,0.00,,,-99.99,,2013-05-23 20:02:00,
2013-05-23 14:11:00,67.0,45.0,30.01,South,169,3.0,12.0,45,0.00,,,-99.99,,2013-05-23 20:11:00,
2013-05-23 14:21:00,67.0,45.0,30.01,SSE,166,8.0,15.0,45,0.00,,,-99.99,,2013-05-23 20:21:00,
2013-05-23 14:32:00,68.0,47.0,30.01,SE,136,7.0,15.0,47,0.00,,,-99.99,,2013-05-23 20:32:00,
2013-05-23 14:41:00,67.0,45.0,30.01,SSE,147,5.0,14.0,45,0.00,,,-99.99,,2013-05-23 20:41:00,
2013-05-23 14:51:00,68.0,45.0,30.00,SSE,155,9.0,12.0,44,0.00,,,-99.99,,2013-05-23 20:51:00,
2013-05-23 15:01:00,68.0,45.0,30.00,SSE,150,10.0,15.0,44,0.00,,,-99.99,,2013-05-23 21:01:00,
2013-05-23 15:11:00,68.0,45.0,30.00,SE,138,3.0,13.0,43,0.00,,,-99.99,,2013-05-23 21:11:00,
2013-05-23 15:21:00,69.0,46.0,29.99,East,82,11.0,16.0,43,0.00,,,-99.99,,2013-05-23 21:21:00,
2013-05-23 15:32:00,69.0,46.0,29.99,ENE,70,14.0,16.0,43,0.00,,,-99.99,,2013-05-23 21:32:00,
2013-05-23 15:43:00,70.0,46.0,29.99,NE,53,11.0,16.0,43,0.00,,,-99.99,,2013-05-23 21:43:00,
2013-05-23 15:53:00,69.0,47.0,29.99,ENE,63,11.0,15.0,45,0.00,,,-99.99,,2013-05-23 21:53:00,
2013-05-23 16:02:00,70.0,46.0,29.98,NNE,28,4.0,11.0,43,0.00,,,-99.99,,2013-05-23 22:02:00,
2013-05-23 16:12:00,71.0,45.0,29.98,ESE,103,7.0,12.0,40,0.00,,,-99.99,,2013-05-23 22:12:00,
2013-05-23 16:22:00,70.0,45.0,29.98,ESE,114,17.0,20.0,41,0.00,,,-99.99,,2013-05-23 22:22:00,
2013-05-23 16:33:00,68.0,44.0,29.98,SE,144,12.0,18.0,41,0.00,,,-99.99,,2013-05-23 22:33:00,
2013-05-23 16:42:00,68.0,44.0,29.98,SSE,147,7.0,14.0,42,0.00,,,-99.99,,2013-05-23 22:42:00,
2013-05-23 16:52:00,68.0,43.0,29.98,SE,138,8.0,22.0,40,0.00,,,-99.99,,2013-05-23 22:52:00,
2013-05-23 17:01:00,67.0,42.0,29.99,South,171,16.0,22.0,40,0.00,,,-99.99,,2013-05-23 23:01:00,
2013-05-23 17:11:00,67.0,42.0,29.99,SSE,149,19.0,22.0,40,0.00,,,-99.99,,2013-05-23 23:11:00,
2013-05-23 17:21:00,68.0,43.0,29.98,ESE,111,8.0,20.0,40,0.00,,,-99.99,,2013-05-23 23:21:00,
2013-05-23 17:31:00,69.0,43.0,29.97,SE,136,9.0,22.0,39,0.00,,,-99.99,,2013-05-23 23:31:00,
2013-05-23 17:42:00,69.0,43.0,29.97,SE,137,14.0,20.0,38,0.00,,,-99.99,,2013-05-23 23:42:00,
2013-05-23 17:52:00,67.0,42.0,29.97,SE,144,16.0,20.0,39,0.00,,,-99.99,,2013-05-23 23:52:00,
2013-05-23 18:01:00,68.0,43.0,29.97,SE,133,8.0,21.0,40,0.00,,,-99.99,,2013-05-24 00:01:00,
2013-05-23 18:12:00,68.0,44.0,29.98,SSE,163,7.0,21.0,42,0.00,,,-99.99,,2013-05-24 00:12:00,
2013-05-23 18:21:00,67.0,43.0,29.98,SSE,164,8.0,19.0,42,0.00,,,-99.99,,2013-05-24 00:21:00,
2013-05-23 18:31:00,68.0,44.0,29.97,East,82,7.0,18.0,43,0.00,,,-99.99,,2013-05-24 00:31:00,
2013-05-23 18:42:00,67.0,43.0,29.98,SSE,159,15.0,23.0,43,0.00,,,-99.99,,2013-05-24 00:42:00,
2013-05-23 18:52:00,66.0,43.0,29.97,SE,138,12.0,23.0,44,0.00,,,-99.99,,2013-05-24 00:52:00,
2013-05-23 19:01:00,65.0,44.0,29.98,SE,139,10.0,30.0,45,0.00,,,-99.99,,2013-05-24 01:01:00,
2013-05-23 19:12:00,65.0,44.0,29.98,SSE,149,11.0,18.0,46,0.00,,,-99.99,,2013-05-24 01:12:00,
2013-05-23 19:22:00,64.0,45.0,29.98,SE,143,8.0,23.0,48,0.00,,,-99.99,,2013-05-24 01:22:00,
2013-05-23 19:32:00,63.0,44.0,29.98,ESE,104,8.0,17.0,49,0.00,,,-99.99,,2013-05-24 01:32:00,
2013-05-23 19:41:00,63.0,44.0,29.98,SSE,147,7.0,17.0,50,0.00,,,-99.99,,2013-05-24 01:41:00,
2013-05-23 19:52:00,63.0,44.0,29.98,SE,144,14.0,20.0,50,0.00,,,-99.99,,2013-05-24 01:52:00,
2013-05-23 20:01:00,62.0,44.0,29.98,SSE,158,9.0,19.0,51,0.00,,,-99.99,,2013-05-24 02:01:00,
2013-05-23 20:11:00,61.0,44.0,29.98,SSE,147,11.0,18.0,52,0.00,,,-99.99,,2013-05-24 02:11:00,
2013-05-23 20:21:00,61.0,44.0,29.98,SSE,165,10.0,18.0,53,0.00,,,-99.99,,2013-05-24 02:21:00,
2013-05-23 20:32:00,61.0,44.0,29.98,SSE,154,8.0,14.0,54,0.00,,,-99.99,,2013-05-24 02:32:00,
2013-05-23 20:42:00,61.0,44.0,29.98,SE,145,7.0,13.0,54,0.00,,,-99.99,,2013-05-24 02:42:00,
2013-05-23 20:52:00,61.0,44.0,29.99,South,181,8.0,10.0,55,0.00,,,-99.99,,2013-05-24 02:52:00,
2013-05-23 21:02:00,60.0,45.0,29.99,South,170,9.0,13.0,56,0.00,,,-99.99,,2013-05-24 03:02:00,
2013-05-23 21:11:00,60.0,45.0,29.99,SE,128,3.0,12.0,56,0.00,,,-99.99,,2013-05-24 03:11:00,
2013-05-23 21:21:00,59.0,45.0,29.99,SSE,162,6.0,9.0,59,0.00,,,-99.99,,2013-05-24 03:21:00,
2013-05-23 21:33:00,59.0,45.0,30.00,SSE,165,7.0,9.0,61,0.00,,,-99.99,,2013-05-24 03:33:00,
2013-05-23 21:42:00,59.0,45.0,30.00,South,177,7.0,11.0,60,0.00,,,-99.99,,2013-05-24 03:42:00,
2013-05-23 21:53:00,58.0,45.0,30.00,South,181,4.0,9.0,62,0.00,,,-99.99,,2013-05-24 03:53:00,
2013-05-23 22:03:00,59.0,45.0,30.00,SSE,158,5.0,9.0,61,0.00,,,-99.99,,2013-05-24 04:03:00,
2013-05-23 22:12:00,59.0,45.0,30.00,SSE,163,5.0,9.0,59,0.00,,,-99.99,,2013-05-24 04:12:00,
2013-05-23 22:22:00,59.0,45.0,30.01,SSE,167,10.0,10.0,60,0.00,,,-99.99,,2013-05-24 04:22:00,
2013-05-23 22:33:00,58.0,45.0,30.01,South,175,5.0,9.0,60,0.00,,,-99.99,,2013-05-24 04:33:00,
2013-05-23 22:42:00,58.0,45.0,30.01,SE,133,5.0,8.0,60,0.00,,,-99.99,,2013-05-24 04:42:00,
2013-05-23 22:52:00,58.0,45.0,30.01,ESE,121,5.0,8.0,61,0.00,,,-99.99,,2013-05-24 04:52:00,
2013-05-23 23:02:00,58.0,45.0,30.03,SSE,149,4.0,7.0,61,0.00,,,-99.99,,2013-05-24 05:02:00,
2013-05-23 23:12:00,58.0,45.0,30.03,South,180,5.0,8.0,62,0.00,,,-99.99,,2013-05-24 05:12:00,
2013-05-23 23:22:00,58.0,45.0,30.01,South,179,5.0,9.0,63,0.00,,,-99.99,,2013-05-24 05:22:00,
2013-05-23 23:32:00,58.0,45.0,30.01,SSE,160,5.0,12.0,61,0.00,,,-99.99,,2013-05-24 05:32:00,
2013-05-23 23:42:00,59.0,45.0,30.00,South,169,7.0,15.0,60,0.00,,,-99.99,,2013-05-24 05:42:00,
2013-05-23 23:52:00,59.0,45.0,30.01,South,180,8.0,16.0,60,0.00,,,-99.99,,2013-05-24 05:52:00,